STARLINK-31281, 59077

Orbit data source: Space-Track

STARLINK-31281, 59077 is a payload satellite owned by SpaceX/Seattle (US) in LEO that was launched on Thu, 29 Feb 2024 UTC via an FALCON 9 launch vehicle from the Air Force Eastern Test Range (AFETR). Payload-class satellites include a variety of spacecraft equipped with specific instruments for various scientific and technological missions. These include communications satellites like Starlink; space stations such as the ISS; scientific satellites like the Hubble; Earth observation satellites from companies like Planet Labs, Umbra, and HawkEye 360; GPS; miniature CubeSats for education and research; and military/defense satellites.

Loading next visibility...
Identifier
59077, 2024-041D
Orbit
LEO
Country
Flag of USUS
Related business
Manufacturer
SpaceX/Seattle
Mission
Operational Commercial Communications
Bus & Motor
STARLINK V2M, Unknown motor
Mass
730 kg wet, ~700 kg dry
Launch date (UTC)
2024-02-29 (2 years ago)
Launch vehicle
FALCON 9
Launch site
Air Force Eastern Test Range (AFETR)
Object type
Payload
Rocket body
Debris
Shape & HBR
Box + 2 Pan, 17.7 m
Radar Cross Section
33.884 m², Large (>1 m²)

Expand to show TLE details & history
Last TLE update: 3 days ago

TLE from 3 days ago
0 STARLINK-31281
1 59077U 24041D   26170.48647576  .00001164  00000-0  51799-4 0  9999
2 59077  43.0042  95.5009 0000563 281.8615  78.2173 15.27581593129899
Epoch: 2026-06-19T11:40Z
TLE epoch observation values (Epoch: 2026-06-19T11:40:31.505Z)
Latitude
-0.00006°
Longitude
12.6548°
Altitude
482.741 km
Speed
7.626 km/s
True Right ascension
06h 22m 00s
True Declination
0° 00' 00"
Sunlit
Object was in daylight at epoch
Visualization orbit readout
Latitude
Unknown
Longitude
Unknown
Altitude
Unknown
Speed
Unknown
Apparent Right ascension
Unknown
Apparent Declination
Unknown
Sunlit
N/A
Visualization observer readout
Local Sidereal Time
21:30:06
Azimuth
Unknown
Elevation
Unknown
Doppler factor
Unknown
Orbital elements
Apogee altitude
485.375 km
Perigee altitude
484.602 km
Semi-major axis
6,863.126 km
Eccentricity
0.00006
Inclination
43.0042°
RAAN
95.5009°
Arg. of periapsis
281.8615°
True anomaly
78.22362°
Mean anomaly
78.2173°
Eccentric anomaly
78.22046°
Mean motion
3.81733 °/min
Orbital period
94.31 mins
BSTAR
0.000051799
Loading maneuver chart data...
Computing Atmospheric mass density...
Loading historical data...
Loading historical data...
Loading historical data...
Loading historical data...
Loading historical data...
Loading historical data...
Loading historical data...

Documentation

Showing up to 5 results
|